This is the latest recevied weather packets stored in our database for station/object WA9AFM-10. If no packets are shown the sender has not sent any weather packets the latest 1 day(s).
| Time | Temp. | Humidity | Pressure | Rain* | Wind** | Luminosity | Snow |
|---|---|---|---|---|---|---|---|
| 1778071873 | 8.89° C | 82% | 1012.1 hPa | 0 mm | - | - | - |
| 1778066523 | 8.33° C | 81% | 1010.9 hPa | 0 mm | - | - | - |
| 1778061075 | 8.89° C | 77% | 1010.8 hPa | 0 mm | - | - | - |
| 1778055673 | 8.89° C | 78% | 1009.1 hPa | 0 mm | - | - | - |
| 1778048473 | 9.44° C | 75% | 1008.4 hPa | 0 mm | - | - | - |
| 1778046674 | 9.44° C | 76% | 1008 hPa | 0 mm | - | - | - |
| 1778044874 | 9.44° C | 78% | 1007.9 hPa | 0 mm | - | - | - |
| 1778043074 | 9.44° C | 79% | 1008.1 hPa | 0 mm | - | - | - |
| 1778041274 | 9.44° C | 81% | 1008.2 hPa | 0 mm | - | - | - |
| 1778039473 | 9.44° C | 82% | 1008 hPa | 0 mm | - | - | - |
| 1778037674 | 9.44° C | 84% | 1007.3 hPa | 0 mm | - | - | - |
| 1778035872 | 9.44° C | 84% | 1006.7 hPa | 0 mm | - | - | - |
| 1778034073 | 9.44° C | 82% | 1006.7 hPa | 0 mm | - | - | - |
| 1778030473 | 10° C | 82% | 1005.9 hPa | 0 mm | - | - | - |
| 1778026874 | 10.56° C | 76% | 1004.7 hPa | 0 mm | - | - | - |
| 1778023273 | 11.67° C | 75% | 1004.7 hPa | 0 mm | - | - | - |
| 1778012474 | 12.22° C | 81% | 1002.9 hPa | 0 mm | - | - | - |
| 1778007073 | 13.89° C | 81% | 1001.6 hPa | 0 mm | - | - | - |
| 1778003474 | 14.44° C | 82% | 1000.8 hPa | 0 mm | - | - | - |
| 1777999876 | 15.56° C | 82% | 999.6 hPa | 0 mm | - | - | - |
* Rain latest hour (hover to see other rain measurements)
** Current wind speed in m/s (hover to see current wind gust speed)